CZ-4C R/B, 57491

Orbit data source: Space-Track

CZ-4C R/B, 57491 is space debris in SSO originally from a launch on Thu, 03 Aug 2023 UTC launched from the Jiuquan Satellite Launch Center, China (JSC). Debris objects in space refer to the collection of defunct objects orbiting the Earth. Examples of debris include non-operational satellites, rocket bodies, and fragments generated from explosions, collisions, or faulty payload assembly.

Loading next visibility...
Identifier
57491, 2023-111B
Orbit
SSO
Country
Flag of CNCN / PRC
Related business
Manufacturer
SAST
Mission
Spacecraft
Bus & Motor
CZ-4 STAGE 3, Unknown motor
Mass
~1,000 kg wet, ~1,000 kg dry
Launch date (UTC)
2023-08-03 (3 years ago)
Launch vehicle
Unknown
Launch site
Jiuquan Satellite Launch Center, China (JSC)
Object type
Payload
Rocket body
Debris
Shape & HBR
Cyl, 2.5 m
Radar Cross Section
14.536 m², Large (>1 m²)

Expand to show TLE details & history
Last TLE update: 2 days ago

TLE from 2 days ago
0 CZ-4C R/B
1 57491U 23111B   26171.37736257  .00000310  00000-0  71652-4 0  9990
2 57491  98.8247 310.0036 0137666  77.8949 283.7633 14.57263915153130
Epoch: 2026-06-20T09:03Z
TLE epoch observation values (Epoch: 2026-06-20T09:03:24.126Z)
Latitude
-0.00006°
Longitude
-94.43977°
Altitude
683.063 km
Speed
7.527 km/s
True Right ascension
20h 40m 00s
True Declination
0° 00' 00"
Sunlit
Object was in full shadow at epoch
Visualization orbit readout
Latitude
Unknown
Longitude
Unknown
Altitude
Unknown
Speed
Unknown
Apparent Right ascension
Unknown
Apparent Declination
Unknown
Sunlit
N/A
Visualization observer readout
Local Sidereal Time
21:29:52
Azimuth
Unknown
Elevation
Unknown
Doppler factor
Unknown
Orbital elements
Apogee altitude
796.566 km
Perigee altitude
601.706 km
Semi-major axis
7,077.273 km
Eccentricity
0.01377
Inclination
98.8247°
RAAN
310.0036°
Arg. of periapsis
77.8949°
True anomaly
282.22495°
Mean anomaly
283.7633°
Eccentric anomaly
282.99473°
Mean motion
3.64539 °/min
Orbital period
98.75 mins
BSTAR
0.000071652
Loading maneuver chart data...
Computing Atmospheric mass density...
Loading historical data...
Loading historical data...
Loading historical data...
Loading historical data...
Loading historical data...
Loading historical data...
Loading historical data...
Other satellites on launch #111 in the year 2023 (2023-08-03 UTC)

Documentation

Showing up to 5 results
|